Weather History for Dalhart, TX

Change the Weather History Date:

Saturday, February 25, 2012

  Actual Average Record
Temperature  
Mean Temperature 42 °F 40 °F  
Max Temperature 67 °F 55 °F 82 °F (1986)
Min Temperature 17 °F 25 °F 4 °F (1960)
Degree Days  
Heating Degree Days 23 25  
Month to date heating degree days 703 687  
Since 1 July heating degree days 3351 3569  
Cooling Degree Days 0 0  
Month to date cooling degree days 0 0  
Year to date cooling degree days 0 0  
Moisture  
Dew Point 12 °F    
Average Humidity 37    
Maximum Humidity 62    
Minimum Humidity 11    
Precipitation  
Precipitation 0.00 in 0.01 in 0.45 in (1949)
Month to date precipitation 0.05 0.35  
Year to date precipitation 0.07 0.87  
Snow  
Snow 0.00 in 0.10 in 1.00 in (2013)
Month to date snowfall T 2.8  
Since 1 July snowfall 8.3 13.3  
Snow Depth 0.00 in    
Sea Level Pressure  
Sea Level Pressure 29.98 in    
Wind  
Wind Speed 23 mph (SSW)    
Max Wind Speed 41 mph    
Max Gust Speed 51 mph    
Visibility 9 miles    
Events      
T = Trace of Precipitation, MM = Missing Value Source: NWS Daily Summary

Daily Weather History Graph

Daily Weather History Graph

Search for Another Location

Airport:

Trip Planner

Search our weather history database for the weather conditions in past years. The results will help you decide how hot, cold, wet, or windy it might be!

Date:

Astronomy

Feb. 25, 2012 Rise Set
Actual Time 7:26 AM CST 6:40 PM CST
Civil Twilight 7:00 AM CST 7:06 PM CST
Nautical Twilight 6:30 AM CST 7:36 PM CST
Astronomical Twilight 6:00 AM CST 8:06 PM CST
Moon 9:00 AM CST (2/25) 10:33 PM CST (2/25)
Length of Visible Light 12h 06m
Length of Day
11h 14m
Waxing Crescent, 14% of the Moon is Illuminated
Feb 25
Waxing Crescent
Feb 29
First Quarter
Mar 8
Full
Mar 14
Last Quarter
Mar 22
New

Hourly Weather History & Observations

Time (CST) Temp. Windchill Dew Point Humidity Pressure Visibility Wind Dir Wind Speed Gust Speed Precip Events Conditions
12:53 AM 24.1 °F 15.2 °F 8.1 °F 51% 30.27 in 10.0 mi South 8.1 mph - N/A   Clear
1:53 AM 28.0 °F 18.6 °F 10.0 °F 47% 30.25 in 10.0 mi South 10.4 mph - N/A   Clear
2:53 AM 21.9 °F 11.0 °F 9.0 °F 58% 30.23 in 10.0 mi South 10.4 mph - N/A   Clear
3:53 AM 21.9 °F 11.7 °F 10.0 °F 60% 30.20 in 10.0 mi South 9.2 mph - N/A   Clear
4:53 AM 19.0 °F 8.2 °F 9.0 °F 65% 30.19 in 10.0 mi South 9.2 mph - N/A   Clear
5:53 AM 23.0 °F 13.1 °F 10.9 °F 60% 30.17 in 10.0 mi South 9.2 mph - N/A   Clear
6:53 AM 25.0 °F 14.2 °F 12.0 °F 58% 30.16 in 10.0 mi SSW 11.5 mph - N/A   Clear
7:53 AM 30.9 °F 19.8 °F 12.9 °F 47% 30.16 in 10.0 mi SSW 16.1 mph - N/A   Clear
8:53 AM 36.0 °F 25.3 °F 14.0 °F 41% 30.14 in 10.0 mi SSW 19.6 mph - N/A   Clear
9:53 AM 45.0 °F 34.7 °F 14.0 °F 29% 30.09 in 8.0 mi SSW 33.4 mph 39.1 mph N/A   Clear
10:53 AM 52.0 °F - 14.0 °F 22% 30.04 in 7.0 mi SSW 33.4 mph 42.6 mph N/A   Partly Cloudy
11:53 AM 57.0 °F - 14.0 °F 18% 29.99 in 6.0 mi SSW 38.0 mph 44.9 mph N/A   Haze
12:53 PM 61.0 °F - 12.9 °F 15% 29.95 in 7.0 mi SSW 39.1 mph 47.2 mph N/A   Partly Cloudy
1:53 PM 64.0 °F - 12.0 °F 13% 29.87 in 10.0 mi SSW 34.5 mph 48.3 mph N/A   Clear
2:48 PM 64.4 °F - 10.4 °F 12% 29.87 in 7.0 mi SSW 40.3 mph 50.6 mph N/A   Partly Cloudy
2:53 PM 64.9 °F - 10.9 °F 12% 29.84 in 9.0 mi SSW 38.0 mph 50.6 mph N/A   Partly Cloudy
3:53 PM 66.0 °F - 10.9 °F 12% 29.81 in 9.0 mi SSW 35.7 mph 47.2 mph N/A   Clear
4:53 PM 66.0 °F - 12.0 °F 12% 29.78 in 10.0 mi SSW 36.8 mph 46.0 mph N/A   Clear
5:53 PM 64.0 °F - 12.0 °F 13% 29.75 in 10.0 mi SSW 33.4 mph 40.3 mph N/A   Clear
6:53 PM 59.0 °F - 12.0 °F 16% 29.77 in 10.0 mi SSW 25.3 mph - N/A   Clear
7:53 PM 53.1 °F - 12.9 °F 20% 29.78 in 10.0 mi South 19.6 mph - N/A   Clear
8:53 PM 53.1 °F - 15.1 °F 22% 29.78 in 10.0 mi SSW 20.7 mph - N/A   Clear
9:53 PM 48.9 °F - 16.0 °F 27% 29.79 in 10.0 mi South 18.4 mph - N/A   Clear
10:53 PM 46.9 °F - 16.0 °F 29% 29.78 in 10.0 mi SSW 16.1 mph - N/A   Clear
11:53 PM 46.9 °F - 17.1 °F 30% 29.77 in 10.0 mi SSW 19.6 mph - N/A   Clear